24th November 2019 | Maryborough, Victoria, Australia

Energy Breakthrough (2019)

HPV Primary - Practice: Mixed A2

Pos Name School Overall Pos Laps Fastest Average Slowest
1 NITRO (#73) Derinya Primary School 1 28 00:01:40 00:02:44 00:07:59
2 WIMMERA VISPER (#22) Horsham West and Haven Primary School 2 36 00:01:41 00:02:27 00:04:40
3 ECORUSH (#7) White Hills Primary School 3 29 00:01:43 00:03:01 00:10:12
4 DOCTOR DOCTOR (#86) Marist College Bendigo 4 30 00:01:45 00:02:54 00:04:26
5 GHOST (#79) Golden Square Primary School 5 24 00:01:47 00:03:21 00:12:36
6 WILLMOTT PARK WARRIORS (#25) Willmott Park Primary School 6 21 00:01:48 00:04:08 00:35:39
7 PHOENIX (#381) Jells Park Primary School 7 10 00:01:48 00:06:41 00:45:33
8 MECLICIOUS SISTA (#1) Maryborough Education Centre 8 38 00:01:49 00:02:20 00:03:41
9 GRAND SLAM (#13) Mornington Primary School 9 29 00:01:49 00:02:59 00:04:45
10 LAURIMAR GRIFFINS (#28) Laurimar Primary School 10 30 00:01:50 00:02:45 00:05:01
11 BLITZ (#74) Derinya Primary School 11 32 00:01:50 00:02:34 00:04:31
12 FLAMINGOS (#373) Derinya Primary School 12 30 00:01:52 00:02:40 00:04:48
13 TORPECO (#8) White Hills Primary School 13 29 00:01:53 00:02:43 00:08:23
14 SHAZZAM (#81) Jells Park Primary School 14 30 00:01:53 00:02:52 00:09:11
15 MERCURY (#15) Carisbrook Primary School 15 29 00:01:54 00:02:55 00:05:04
16 TOOT TOOT (#60) Tootgarook Primary School 16 35 00:01:54 00:02:22 00:04:31
17 GT (#14) Mornington Primary School 17 24 00:01:54 00:03:21 00:07:48
18 BEWARE (#71) Bonbeach Primary School 18 34 00:01:54 00:02:31 00:05:35
19 JUNIOR (#16) Carisbrook Primary School 19 26 00:01:55 00:03:14 00:06:32
20 PEARCEDALE PIRANHAS 2.0 (#34) Pearcedale Primary School 20 33 00:01:56 00:02:38 00:04:23
21 CRUISIN CREW (#43) Lloyd Street Primary School 21 31 00:01:56 00:02:49 00:05:31
22 JOHN VALVES (#49) Caledonian Primary School 22 22 00:01:59 00:03:47 00:08:51
23 THE SPIRIT OF DIAMOND CREEK (#24) Diamond Creek Primary School 23 33 00:02:00 00:02:38 00:05:05
24 LICKETY SPLIT (#32) Kororoit Creek Primary School 24 27 00:02:00 00:02:59 00:04:48
25 HAILEYBURY HAILSTORM (#9) Haileybury College 25 28 00:02:00 00:03:01 00:05:23
26 KENNINGTON GREEN (#67) Kennington Primary School 26 26 00:02:00 00:03:11 00:04:54
27 FLAMIN (#36) Terang College 27 24 00:02:01 00:03:29 00:06:06
28 FIRE STARS (#61) Tootgarook Primary School 28 29 00:02:01 00:03:00 00:05:00
29 CREEKERS (#31) Kororoit Creek Primary School 30 30 00:02:02 00:02:57 00:04:39
30 WILLMOTT PARK WIZARDS (#26) Willmott Park Primary School 31 29 00:02:03 00:02:55 00:10:36
31 MECLICIOUS (#2) Maryborough Education Centre 32 32 00:02:03 00:02:46 00:04:33
32 OSCAR (#44) Berwick Primary School 33 29 00:02:04 00:02:57 00:05:49
33 VANQUISH (#82) Jells Park Primary School 34 29 00:02:04 00:02:57 00:05:20
34 KATCHMI JNR (#29) Morwell Park Primary School 35 21 00:02:04 00:04:04 00:10:08
35 LAURIMAR PHOENIX (#327) Laurimar Primary School 36 29 00:02:05 00:02:49 00:04:17
36 KILDARE MAY (#88) St. Augustine's Primary School 37 26 00:02:05 00:03:14 00:05:48
37 PACMAN (#80) Golden Square Primary School 39 22 00:02:06 00:03:21 00:05:03
38 CWPS WOLVES (#57) Cranbourne West Primary School 41 23 00:02:07 00:03:43 00:09:33
39 KILDARE BARBARA (#87) St. Augustine's Primary School 42 28 00:02:07 00:03:06 00:05:42
40 HR ROCKETS - FLAMES (#84) Holy Rosary Primary School White Hills 45 19 00:02:10 00:04:14 00:23:34
41 PEARCEDALE PIRANHAS (#33) Pearcedale Primary School 46 30 00:02:10 00:02:49 00:04:18
42 ROAD RUNNER (#41) Dingley Primary School 47 26 00:02:10 00:03:15 00:04:44
43 THUNDER (#75) Niddrie Primary School 48 24 00:02:10 00:03:24 00:07:07
44 LIGHTNING (#76) Niddrie Primary School 50 28 00:02:11 00:03:06 00:05:07
45 CWPS PUPS (#58) Cranbourne West Primary School 51 24 00:02:11 00:03:33 00:06:28
46 GECKO 1 (#39) Seymour College 52 24 00:02:12 00:03:18 00:05:02
47 LAURIMAR DRAGONS (#27) Laurimar Primary School 53 26 00:02:12 00:03:11 00:06:04
48 SPEEDY GONZALES (#42) Dingley Primary School 54 22 00:02:12 00:03:41 00:14:37
49 BACK OFF (#72) Bonbeach Primary School 55 29 00:02:13 00:02:58 00:04:50
50 ICE (#4) Buninyong Primary School 57 27 00:02:14 00:03:03 00:05:59
51 FIRE (#3) Buninyong Primary School 58 26 00:02:14 00:03:08 00:04:44
52 WIMMERA RAMPAGE (#23) Horsham West and Haven Primary School 60 23 00:02:15 00:02:59 00:04:58
53 ELMO (#344) Berwick Primary School 61 24 00:02:16 00:03:34 00:06:17
54 HURRICANE HEIGHTS (#52) Frankston Heights Primary School 62 24 00:02:16 00:03:34 00:06:19
55 HAILEYS COMET (#10) Haileybury College 63 24 00:02:16 00:03:31 00:05:10
56 HAILEYBURY HORNETS (#309) Haileybury College 64 26 00:02:17 00:03:17 00:10:40
57 LEGO MASTERS (#56) Lyndhurst Primary School 65 23 00:02:17 00:03:36 00:06:21
58 LUCKNOW THUNDER (#54) Lucknow Primary School 66 28 00:02:17 00:03:06 00:05:25
59 DPS EXPRESS 1 (#20) Delacombe Primary School 67 24 00:02:17 00:03:33 00:07:32
60 COOKIE (#45) Berwick Primary School 68 25 00:02:17 00:03:27 00:05:29
61 CARBON ZERO (#19) Pleasant Street Primary School 69 21 00:02:18 00:03:55 00:07:14
62 KENNINGTON YELLOW (#68) Kennington Primary School 70 26 00:02:19 00:03:13 00:04:24
63 LUCKNOW LIGHTNING (#53) Lucknow Primary School 71 27 00:02:19 00:03:04 00:04:39
64 LIGHT SPEED (#70) Mt Eliza Primary School 72 21 00:02:20 00:03:57 00:10:05
65 CARBON NADA (#18) Pleasant Street Primary School 74 19 00:02:20 00:04:16 00:06:25
66 BENTON BULLETS (#12) Benton Junior College 75 23 00:02:22 00:03:42 00:08:49
67 BENTON BANDITS (#11) Benton Junior College 76 26 00:02:23 00:03:17 00:04:41
68 MASTERCHEF (#55) Lyndhurst Primary School 77 26 00:02:25 00:03:13 00:04:38
69 BULLETPROOF (#62) Leongatha Primary School 78 19 00:02:26 00:04:20 00:07:09
70 GECKO 3 (#40) Seymour College 79 21 00:02:28 00:04:10 00:12:04
71 DPS EXPRESS 2 (#21) Delacombe Primary School 80 22 00:02:29 00:03:50 00:08:33
72 FURIOUS 8 (#51) Frankston Heights Primary School 81 24 00:02:29 00:03:24 00:05:46
73 THUNDER (#47) Canadian Lead Primary School 82 16 00:02:31 00:04:18 00:08:48
74 HR ROCKETS - HORNETS (#83) Holy Rosary Primary School White Hills 83 16 00:02:31 00:04:59 00:14:37
75 XLR8 (#63) Leongatha Primary School 85 20 00:02:34 00:04:08 00:07:25
76 PEDDERS SUSPENSION AND BRAKES (#50) Caledonian Primary School 86 20 00:02:41 00:04:01 00:07:40
77 ZERO GRAVITY (#69) Mt Eliza Primary School 87 22 00:02:50 00:03:53 00:05:56
78 FLAME THROWER (#30) Morwell Park Primary School 89 16 00:02:57 00:04:53 00:08:55
79 LIGHTNING (#48) Canadian Lead Primary School 90 12 00:02:58 00:07:04 00:20:17